EW8576 Weather Reports


time (UTC)temp
C
wind
direction
speed
KPH
gust
KPH
rain 1hr
cm
rain 24hr
cm
rain mn
cm
humidity
%
barometer
mb
20260506143322 18 224 0.0 6.4 0.00 0.00 0.00 1 1005.9
20260506143257 18 250 0.0 6.4 0.00 0.00 0.00 1 1005.8
20260506142309 19 259 0.0 3.2 0.00 0.00 0.00 1 1005.9
20260506141806 19 298 0.0 11.3 0.00 0.00 0.00 1 1006.0
20260506141306 19 289 1.6 19.3 0.00 0.00 0.00 1 1005.9
20260506140806 19 263 1.6 19.3 0.00 0.00 0.00 1 1006.1
20260506140304 19 251 1.6 12.9 0.00 0.00 0.00 1 1006.0
20260506135802 19 213 1.6 16.1 0.00 0.00 0.00 1 1006.0
20260506135305 19 265 3.2 25.7 0.00 0.00 0.00 1 1006.0
20260506134802 19 240 3.2 25.7 0.00 0.00 0.00 1 1006.1
20260506134520 19 251 3.2 20.9 0.00 0.00 0.00 1 1005.9
20260506133802 19 223 3.2 20.9 0.00 0.00 0.00 1 1005.8
20260506133302 20 221 1.6 17.7 0.00 0.00 0.00 3 1005.6
20260506132800 20 232 1.6 17.7 0.00 0.00 0.00 1 1005.7
20260506132300 20 263 1.6 16.1 0.00 0.00 0.00 1 1005.5
20260506131758 19 238 1.6 14.5 0.00 0.00 0.00 1 1005.4
20260506131257 19 201 1.6 16.1 0.00 0.00 0.00 1 1005.4
20260506130758 19 241 0.0 16.1 0.00 0.00 0.00 1 1005.4
20260506130519 19 226 0.0 11.3 0.00 0.00 0.00 1 1005.4
20260506125752 19 236 1.6 16.1 0.00 0.00 0.00 1 1005.3
20260506125250 19 240 1.6 16.1 0.00 0.00 0.00 1 1005.3
20260506124750 19 249 1.6 16.1 0.00 0.00 0.00 1 1005.5
20260506124250 19 174 0.0 11.3 0.00 0.00 0.00 1 1005.6
20260506123750 19 259 0.0 8.0 0.00 0.00 0.00 1 1005.7
20260506123250 18 213 0.0 11.3 0.00 0.00 0.00 1 1005.6
20260506122750 18 238 0.0 11.3 0.00 0.00 0.00 1 1005.7
20260506122250 18 207 0.0 6.4 0.00 0.00 0.00 1 1005.7
20260506121749 18 202 0.0 6.4 0.00 0.00 0.00 1 1005.6
20260506121250 18 202 0.0 9.7 0.00 0.00 0.00 1 1005.7
20260506121006 18 234 0.0 9.7 0.00 0.00 0.00 1 1005.8
20260506120245 18 198 0.0 9.7 0.00 0.00 0.00 1 1005.7
20260506120009 18 198 0.0 9.7 0.00 0.00 0.00 1 1005.7
20260506115242 18 220 0.0 6.4 0.00 0.00 0.00 1 1005.9
20260506114742 18 211 0.0 12.9 0.00 0.00 0.00 1 1005.9
20260506114242 18 229 1.6 16.1 0.00 0.00 0.00 1 1005.9
20260506113742 18 243 0.0 16.1 0.00 0.00 0.00 1 1005.7
20260506113242 18 198 0.0 11.3 0.00 0.00 0.00 1 1005.4
20260506112742 18 234 0.0 11.3 0.00 0.00 0.00 1 1005.5
20260506112241 18 245 0.0 9.7 0.00 0.00 0.00 1 1005.6
20260506111741 18 242 0.0 3.2 0.00 0.00 0.00 1 1005.6
20260506111242 18 242 0.0 8.0 0.00 0.00 0.00 1 1005.5
20260506110737 18 244 0.0 12.9 0.00 0.00 0.00 1 1005.5
20260506110238 18 194 0.0 12.9 0.00 0.00 0.00 1 1005.6
20260506105738 18 205 0.0 1.6 0.00 0.00 0.00 1 1005.5
20260506105238 18 240 0.0 3.2 0.00 0.00 0.00 1 1005.5
20260506104737 18 242 0.0 3.2 0.00 0.00 0.00 1 1005.5
20260506104237 18 243 0.0 3.2 0.00 0.00 0.00 1 1005.5
20260506103957 18 244 0.0 11.3 0.00 0.00 0.00 1 1005.5
20260506103456 18 205 0.0 11.3 0.00 0.00 0.00 1 1005.6
20260506102737 18 226 0.0 3.2 0.00 0.00 0.00 1 1005.4
20260506102237 18 250 0.0 1.6 0.00 0.00 0.00 1 1005.4
20260506101738 18 178 0.0 8.0 0.00 0.00 0.00 1 1005.3
20260506101505 17 224 0.0 12.9 0.00 0.00 0.00 1 1005.4
20260506100738 17 221 0.0 12.9 0.00 0.00 0.00 1 1005.2
20260506100238 17 220 0.0 8.0 0.00 0.00 0.00 1 1005.3
20260506095737 17 223 0.0 8.0 0.00 0.00 0.00 1 1005.3
20260506095505 17 226 0.0 3.2 0.00 0.00 0.00 1 1005.1
20260506094738 17 226 0.0 3.2 0.00 0.00 0.00 1 1005.3
20260506094237 17 220 0.0 0.0 0.00 0.00 0.00 1 1005.4
20260506093735 17 232 0.0 1.6 0.00 0.00 0.00 1 1005.5
20260506093456 17 233 0.0 6.4 0.00 0.00 0.00 1 1005.5
20260506092736 17 234 0.0 6.4 0.00 0.00 0.00 1 1005.3
20260506092236 17 234 0.0 0.0 0.00 0.00 0.00 1 1005.3
20260506091736 17 236 0.0 0.0 0.00 0.00 0.00 3 1005.2
20260506091234 17 230 0.0 0.0 0.00 0.00 0.00 5 1005.2
20260506090734 17 225 0.0 0.0 0.00 0.00 0.00 8 1005.2
20260506090234 17 225 0.0 8.0 0.00 0.00 0.00 11 1005.3
20260506090215 17 232 0.0 8.0 0.00 0.00 0.00 14 1005.3
20260506085233 17 232 0.0 8.0 0.00 0.00 0.00 15 1005.3
20260506084730 17 234 0.0 0.0 0.00 0.00 0.00 18 1005.4
20260506084230 17 234 0.0 0.0 0.00 0.00 0.00 21 1005.3
20260506083730 17 234 0.0 0.0 0.00 0.00 0.00 25 1005.4
20260506083230 18 234 0.0 0.0 0.00 0.00 0.00 30 1005.5
20260506082728 18 234 0.0 0.0 0.00 0.00 0.00 34 1005.5
20260506082221 18 234 0.0 0.0 0.00 0.00 0.00 38 1005.6
20260506081714 19 230 0.0 0.0 0.00 0.00 0.00 41 1005.5
20260506081209 19 230 0.0 11.3 0.00 0.00 0.00 42 1005.6
20260506080703 19 234 0.0 11.3 0.00 0.00 0.00 43 1005.6
20260506080157 19 245 0.0 9.7 0.00 0.00 0.00 44 1005.5
20260506073129 19 236 0.0 8.0 0.00 0.00 0.00 45 1005.5
20260506072629 19 234 0.0 3.2 0.00 0.00 0.00 45 1005.5
20260506072129 19 242 0.0 8.0 0.00 0.00 0.00 45 1005.5
20260506071628 19 237 0.0 8.0 0.00 0.00 0.00 45 1005.5
20260506071127 19 245 0.0 1.6 0.00 0.00 0.00 46 1005.5
20260506070628 20 257 0.0 6.4 0.00 0.00 0.00 46 1005.6
20260506070128 20 231 0.0 6.4 0.00 0.00 0.00 46 1005.7
20260506062125 20 225 0.0 0.0 0.00 0.00 0.00 48 1006.1
20260506061619 20 225 0.0 6.4 0.00 0.00 0.00 48 1006.1
20260506061113 20 226 0.0 6.4 0.00 0.00 0.00 48 1006.1
20260506060607 20 222 0.0 3.2 0.00 0.00 0.00 48 1006.1
20260506051027 20 234 0.0 6.4 0.00 0.00 0.00 51 1006.2
20260506050527 20 245 0.0 6.4 0.00 0.00 0.00 51 1006.4
20260506045026 20 244 0.0 1.6 0.00 0.00 0.00 51 1006.3
20260506044526 20 242 0.0 1.6 0.00 0.00 0.00 51 1006.3
20260506044023 20 243 0.0 1.6 0.00 0.00 0.00 51 1006.3
20260506043521 20 244 0.0 1.6 0.00 0.00 0.00 51 1006.3
20260506043021 20 244 0.0 1.6 0.00 0.00 0.00 51 1006.3
20260506042521 20 244 0.0 11.3 0.00 0.00 0.00 51 1006.3
20260506042019 20 246 0.0 11.3 0.00 0.00 0.00 51 1006.2
20260506041517 20 223 0.0 8.0 0.00 0.00 0.00 51 1006.2
20260506041018 20 222 0.0 0.0 0.00 0.00 0.00 52 1006.1
20260506040517 20 223 0.0 1.6 0.00 0.00 0.00 52 1006.1
20260506040017 20 226 0.0 1.6 0.00 0.00 0.00 51 1006.0
20260506035511 20 222 0.0 0.0 0.00 0.00 0.00 52 1006.1
20260506035005 20 222 0.0 0.0 0.00 0.00 0.00 51 1006.1
20260506034500 20 222 0.0 0.0 0.00 0.00 0.00 51 1006.1
20260506033953 21 222 0.0 0.0 0.00 0.00 0.00 51 1006.1
20260506033707 21 223 0.0 1.6 0.00 0.00 0.00 50 1006.1
20260506033205 21 223 0.0 3.2 0.00 0.00 0.00 50 1005.9
20260506032435 21 223 0.0 9.7 0.00 0.00 0.00 50 1006.0
20260506031929 21 223 0.0 9.7 0.00 0.00 0.00 49 1005.9
20260506031423 21 223 0.0 12.9 0.00 0.00 0.00 48 1006.0
20260506030917 21 223 0.0 12.9 0.00 0.00 0.00 48 1006.0
20260506030411 21 233 0.0 8.0 0.00 0.00 0.00 48 1005.9
20260506030123 22 233 0.0 8.0 0.00 0.00 0.00 48 1006.0
20260506025359 22 226 0.0 0.0 0.00 0.00 0.00 46 1005.9
20260506025115 22 225 0.0 11.3 0.00 0.00 0.00 45 1006.0
20260506024347 22 216 0.0 11.3 0.00 0.00 0.00 45 1006.0
20260506023841 22 253 0.0 6.4 0.00 0.00 0.00 44 1005.9
20260506023336 22 263 0.0 6.4 0.00 0.00 0.00 45 1005.9
20260506022829 22 259 0.0 6.4 0.00 0.00 0.00 45 1005.9
20260506022322 22 200 0.0 1.6 0.00 0.00 0.00 44 1005.8
20260506021817 22 246 0.0 0.0 0.00 0.00 0.00 44 1005.8
20260506021311 22 246 0.0 0.0 0.00 0.00 0.00 44 1005.8
20260506020804 22 238 0.0 0.0 0.00 0.00 0.00 43 1005.7
20260506020258 23 237 0.0 0.0 0.00 0.00 0.00 43 1005.6
20260506015753 23 236 0.0 3.2 0.00 0.00 0.00 42 1005.6
20260506015247 23 221 0.0 3.2 0.00 0.00 0.00 42 1005.5
20260506014741 22 241 0.0 9.7 0.00 0.00 0.00 42 1005.5
20260506014235 22 243 0.0 9.7 0.00 0.00 0.00 43 1005.4
20260506013729 23 238 0.0 8.0 0.00 0.00 0.00 44 1005.4
20260506013223 23 238 0.0 1.6 0.00 0.00 0.00 42 1005.3
20260506012942 23 238 0.0 1.6 0.00 0.00 0.00 43 1005.3
20260506012221 23 244 0.0 1.6 0.00 0.00 0.00 42 1005.3
20260506012209 23 252 0.0 0.0 0.00 0.00 0.00 42 1005.2
20260506011220 23 252 0.0 1.6 0.00 0.00 0.00 41 1005.1
20260506010717 23 181 0.0 1.6 0.00 0.00 0.00 40 1005.1
20260506010217 23 184 0.0 8.0 0.00 0.00 0.00 40 1005.0
20260506005717 23 251 0.0 8.0 0.00 0.00 0.00 41 1005.0
20260506005216 24 241 0.0 6.4 0.00 0.00 0.00 40 1005.0
20260506004930 24 273 0.0 8.0 0.00 0.00 0.00 39 1004.9
20260506004212 24 240 0.0 8.0 0.00 0.00 0.00 39 1004.8
20260506003708 24 248 0.0 9.7 0.00 0.00 0.00 40 1004.7
20260506003207 24 253 0.0 9.7 0.00 0.00 0.00 39 1004.7
20260506002705 24 232 0.0 14.5 0.00 0.00 0.00 39 1004.7
20260506002203 25 249 1.6 19.3 0.00 0.00 0.00 38 1004.7
20260506001703 24 224 1.6 19.3 0.00 0.00 0.00 38 1004.6
20260506001203 25 246 1.6 17.7 0.00 0.00 0.00 38 1004.6
20260506000704 25 265 1.6 17.7 0.00 0.00 0.00 39 1004.5
20260506000204 25 257 1.6 29.0 0.00 0.00 0.00 38 1004.5
20260505235703 25 240 1.6 29.0 0.00 0.00 0.00 37 1004.5
20260505235424 25 264 1.6 24.1 0.00 0.00 0.00 37 1004.5
20260505234657 25 238 3.2 30.6 0.00 0.00 0.00 37 1004.4
20260505234157 25 234 4.8 30.6 0.00 0.00 0.00 36 1004.3
20260505233655 25 241 3.2 29.0 0.00 0.00 0.00 37 1004.3
20260505233154 25 247 1.6 20.9 0.00 0.00 0.00 36 1004.1
20260505232918 25 216 1.6 22.5 0.00 0.00 0.00 36 1004.0
20260505232155 25 248 1.6 22.5 0.00 0.00 0.00 36 1004.0
20260505231655 25 234 1.6 16.1 0.00 0.00 0.00 37 1003.9
20260505231155 25 215 1.6 32.2 0.00 0.00 0.00 35 1003.8
20260505230656 25 222 1.6 32.2 0.00 0.00 0.00 36 1003.9
20260505230155 25 219 3.2 25.7 0.00 0.00 0.00 35 1003.9
20260505225654 26 169 3.2 32.2 0.00 0.00 0.00 35 1003.8
20260505225154 26 232 3.2 32.2 0.00 0.00 0.00 34 1003.7
20260505224919 26 259 3.2 29.0 0.00 0.00 0.00 34 1003.6
20260505224419 26 222 3.2 29.0 0.00 0.00 0.00 35 1003.5
20260505223649 26 242 3.2 29.0 0.00 0.00 0.00 33 1003.5
20260505223428 26 265 1.6 22.5 0.00 0.00 0.00 33 1003.4
20260505222649 26 219 1.6 19.3 0.00 0.00 0.00 34 1003.3
20260505222149 26 236 3.2 30.6 0.00 0.00 0.00 34 1003.3
20260505221649 26 221 3.2 30.6 0.00 0.00 0.00 34 1003.3
20260505221149 26 240 1.6 22.5 0.00 0.00 0.00 34 1003.2
20260505220648 26 260 1.6 22.5 0.00 0.00 0.00 34 1003.2
20260505220148 26 220 0.0 14.5 0.00 0.00 0.00 33 1003.1
20260505215648 26 238 3.2 30.6 0.00 0.00 0.00 33 1003.1
20260505215150 26 252 4.8 30.6 0.00 0.00 0.00 32 1003.0
20260505214645 26 219 3.2 20.9 0.00 0.00 0.00 32 1003.0
20260505214145 27 257 3.2 22.5 0.00 0.00 0.00 33 1003.0
20260505213646 27 242 3.2 22.5 0.00 0.00 0.00 32 1002.9
20260505213144 27 256 4.8 32.2 0.00 0.00 0.00 32 1002.7
20260505212644 27 228 3.2 32.2 0.00 0.00 0.00 34 1002.7
20260505212144 27 238 3.2 20.9 0.00 0.00 0.00 34 1002.8
20260505211645 27 221 4.8 24.1 0.00 0.00 0.00 32 1002.7
20260505211145 27 215 3.2 24.1 0.00 0.00 0.00 32 1002.8
20260505210645 27 234 3.2 29.0 0.00 0.00 0.00 32 1002.7
20260505210410 27 168 8.0 32.2 0.00 0.00 0.00 33 1002.7
20260505205645 28 229 9.7 32.2 0.00 0.00 0.00 31 1002.7
20260505205145 28 259 12.9 35.4 0.00 0.00 0.00 31 1002.5
20260505204644 28 248 16.1 35.4 0.00 0.00 0.00 30 1002.5
20260505204144 28 204 14.5 33.8 0.00 0.00 0.00 29 1002.5
20260505203645 28 253 12.9 29.0 0.00 0.00 0.00 30 1002.6
20260505203145 28 202 14.5 38.6 0.00 0.00 0.00 31 1002.6
20260505202645 28 254 12.9 38.6 0.00 0.00 0.00 29 1002.5
20260505202145 28 295 9.7 22.5 0.00 0.00 0.00 34 1002.7
20260505201645 28 292 6.4 33.8 0.00 0.00 0.00 32 1002.8
20260505201145 28 175 8.0 33.8 0.00 0.00 0.00 31 1002.8
20260505200645 27 240 11.3 41.8 0.00 0.00 0.00 32 1002.9
20260505200144 28 274 11.3 41.8 0.00 0.00 0.00 32 1003.0
20260505195642 28 234 8.0 35.4 0.00 0.00 0.00 32 1003.0
20260505195143 28 175 6.4 24.1 0.00 0.00 0.00 32 1003.2
20260505194643 28 271 11.3 41.8 0.00 0.00 0.00 32 1003.2
20260505194143 28 167 12.9 41.8 0.00 0.00 0.00 32 1003.2
20260505193643 28 169 11.3 38.6 0.00 0.00 0.00 32 1003.2
20260505193142 28 208 11.3 40.2 0.00 0.00 0.00 32 1003.2
20260505193125 28 232 14.5 45.1 0.00 0.00 0.00 33 1003.5
20260505192400 28 227 17.7 45.1 0.00 0.00 0.00 32 1003.3
20260505191639 28 213 19.3 46.7 0.00 0.00 0.00 33 1003.5
20260505191139 28 281 17.7 53.1 0.00 0.00 0.00 32 1003.4
20260505190639 28 227 14.5 53.1 0.00 0.00 0.00 32 1003.5
20260505190137 28 202 11.3 32.2 0.00 0.00 0.00 33 1003.7
20260505185637 28 250 14.5 32.2 0.00 0.00 0.00 35 1003.8
20260505185135 28 239 14.5 37.0 0.00 0.00 0.00 33 1003.8
20260505184635 28 252 14.5 37.0 0.00 0.00 0.00 35 1003.8
20260505184551 27 288 16.1 38.6 0.00 0.00 0.00 35 1004.0
20260505184504 27 244 16.1 40.2 0.00 0.00 0.00 34 1003.9
20260505184423 27 246 16.1 40.2 0.00 0.00 0.00 35 1003.8
20260505182643 27 228 16.1 37.0 0.00 0.00 0.00 36 1004.1
20260505182130 27 235 16.1 37.0 0.00 0.00 0.00 39 1004.1
20260505182119 27 168 16.1 35.4 0.00 0.00 0.00 37 1004.2
20260505181349 27 277 14.5 35.4 0.00 0.00 0.00 38 1004.2
20260505180618 27 277 14.5 33.8 0.00 0.00 0.00 39 1004.3
20260505180336 27 284 16.1 45.1 0.00 0.00 0.00 37 1004.2
20260505175606 27 242 16.1 45.1 0.00 0.00 0.00 37 1004.3
20260505175348 27 198 12.9 37.0 0.00 0.00 0.00 39 1004.4
20260505175101 27 213 12.9 37.0 0.00 0.00 0.00 38 1004.2
20260505174813 27 207 14.5 33.8 0.00 0.00 0.00 39 1004.6
20260505173835 27 159 14.5 32.2 0.00 0.00 0.00 38 1004.4
20260505173327 27 284 12.9 32.2 0.00 0.00 0.00 40 1004.6
20260505173054 27 188 14.5 32.2 0.00 0.00 0.00 40 1004.6
20260505172328 26 248 12.9 32.2 0.00 0.00 0.00 42 1004.7
20260505172058 26 252 12.9 32.2 0.00 0.00 0.00 41 1004.6
20260505171121 26 253 12.9 32.2 0.00 0.00 0.00 41 1004.7
20260505170850 26 190 12.9 25.7 0.00 0.00 0.00 43 1004.9
20260505170051 26 244 11.3 25.7 0.00 0.00 0.00 42 1004.8
20260505165825 26 163 11.3 30.6 0.00 0.00 0.00 44 1004.8
20260505165049 26 227 12.9 30.6 0.00 0.00 0.00 42 1005.0
20260505164820 26 254 9.7 30.6 0.00 0.00 0.00 43 1005.1
20260505164048 26 231 9.7 30.6 0.00 0.00 0.00 43 1005.1
20260505163549 26 218 9.7 25.7 0.00 0.00 0.00 44 1005.1
20260505163050 25 268 11.3 24.1 0.00 0.00 0.00 44 1005.2
20260505163032 25 216 11.3 24.1 0.00 0.00 0.00 45 1005.4
20260505162906 25 222 11.3 24.1 0.00 0.00 0.00 44 1005.3
20260505161544 25 173 11.3 24.1 0.00 0.00 0.00 45 1005.6
20260505161310 25 238 11.3 22.5 0.00 0.00 0.00 44 1005.7
20260505160530 25 174 11.3 22.5 0.00 0.00 0.00 45 1005.7
20260505152948 24 240 9.7 25.7 0.00 0.00 0.00 46 1006.2
20260505152443 24 227 9.7 25.7 0.00 0.00 0.00 47 1006.2
20260505151936 23 243 11.3 20.9 0.00 0.00 0.00 46 1006.2
20260505151435 23 266 9.7 20.9 0.00 0.00 0.00 46 1006.1
20260505151430 23 229 11.3 19.3 0.00 0.00 0.00 46 1006.2
20260505150705 23 259 8.0 20.9 0.00 0.00 0.00 46 1006.1
20260505150143 23 245 8.0 19.3 0.00 0.00 0.00 46 1006.2